Regional Weather Roundup
Issued by NWS Burlington, VT

Home | Current Version | Previous Version | Text Only | Print | Product List | Glossary On
Versions: 1 2 3 4 5 6 7 8 9 10 11 12 13 14 15 16 17 18 19 20 21 22 23 24 25 26 27 28 29 30 31 32 33 34 35 36 37 38 39 40 41 42 43 44 45 46 47 48 49 50
000
ASUS41 KBTV 210210
RWRBTV
VERMONT REGIONAL WEATHER ROUNDUP
NATIONAL WEATHER SERVICE BURLINGTON VT
1000 PM EDT SUN APR 20 2014

NOTE: "FAIR" INDICATES FEW OR NO CLOUDS BELOW 12,000 FEET WITH NO
SIGNIFICANT WEATHER AND/OR OBSTRUCTIONS TO VISIBILITY.

* THESE REPORTS ARE NOT UNDER NWS QUALITY CONTROL AND/OR DO NOT
  REPORT WEATHER SUCH AS PRECIPITATION AND FOG.

VTZ001>019-210300-
_____VERMONT_____


CITY           SKY/WX    TMP DP  RH WIND       PRES   REMARKS
BURLINGTON     PTCLDY    56  21  25 S12G21    30.23F
MONTPELIER     CLEAR     50  15  24 SW8       30.30S
MORRISVILLE    CLEAR     39  29  67 SW5       30.26F
ST. JOHNSBURY*   N/A     41  22  46 MISG      30.26S
LYNDONVILLE*   FAIR      49   4  16 S5        30.28S
MIDDLEBURY*    FAIR      49  25  38 E5        30.26S
RUTLAND*       CLEAR     46  23  39 SE12      30.28F
SPRINGFIELD    CLEAR     40  27  59 CALM      30.30F
HIGHGATE*      FAIR      58  19  21 S7        30.20F
NEWPORT*       FAIR      47  15  27 S3        30.24F
BENNINGTON     CLEAR     55  17  22 S8        30.29S

_____LAKE CHAMPLAIN_____


CITY           SKY/WX    TMP DP  RH WIND       PRES   REMARKS
COLCHESTER RF*   N/A     45  32  61 SW15        N/A
DIAMOND ISL*     N/A     54  21  28 S9          N/A

$$

NYZ007-026>031-035-052-083-210300-
_____NORTHERN NEW YORK_____


CITY           SKY/WX    TMP DP  RH WIND       PRES   REMARKS
PLATTSBURGH    MOCLDY    46  29  51 CALM      30.21F
SARANAC LAKE   CLEAR     34  23  64 CALM      30.20F
MASSENA        MOCLDY    48  32  53 CALM      30.20F
OGDENSBURG*    CLEAR     50  39  66 CALM      30.19F
POTSDAM*       PTCLDY    48  30  49 S3        30.19F
WATERTOWN      MOCLDY    51  33  50 N5        30.17F
FT DRUM        MOCLDY    56  26  31 S10       30.17F
ALBANY         PTCLDY    56  22  26 S15G23    30.29S
GLENS FALLS    CLEAR     43  28  55 CALM      30.28S

$$
NHZ002-005-011-210300-
_____NEW HAMPSHIRE_____


CITY           SKY/WX    TMP DP  RH WIND       PRES   REMARKS
LEBANON        CLEAR     41  24  51 S7        30.28F
KEENE          CLEAR     41  25  52 S8        30.33S
MT WASHINGTON  MOCLDY    30  16  55 W33         N/A  WCI  14
PLYMOUTH         N/A     46  22  38 E3        30.32S
WHITEFIELD     CLEAR     35  24  64 CALM      30.28S

$$

_____REGIONAL QUEBEC LOCATIONS_____


CITY           SKY/WX    TMP DP  RH WIND       PRES   REMARKS
MONTREAL       CLOUDY    54  21  28 SE6       30.19F
QUEBEC CITY    MOCLDY    39  19  45 CALM      30.24F
SHERBROOKE     CLOUDY    43  28  56 SE5       30.22F

_____REGIONAL ONTARIO LOCATIONS_____


CITY           SKY/WX    TMP DP  RH WIND       PRES   REMARKS
OTTAWA         CLOUDY    54  21  28 S6        30.18F

______KEY______
VSB  - VISIBILITY IN MILES
WCI  - WIND CHILL INDEX
HX   - HEAT INDEX
$$
NNNN



USA.gov is the U.S. government's official web portal to all federal, state and local government web resources and services.